TimeHST,TemperatureF,Dew PointF,Humidity,Sea Level PressureIn,VisibilityMPH,Wind Direction,Wind SpeedMPH,Gust SpeedMPH,PrecipitationIn,Events,Conditions,WindDirDegrees,DateUTC
12:53 AM,71.1,57.9,63,30.05,10.0,ENE,4.6,-,N/A,,Clear,60,2013-02-25 10:53:00
1:53 AM,70.0,59.0,68,30.03,10.0,East,4.6,-,N/A,,Clear,80,2013-02-25 11:53:00
2:53 AM,69.1,59.0,70,30.01,10.0,East,5.8,-,N/A,,Clear,90,2013-02-25 12:53:00
3:53 AM,69.1,60.1,73,30.00,10.0,SE,6.9,-,N/A,,Clear,140,2013-02-25 13:53:00
4:53 AM,69.1,60.1,73,30.01,10.0,ENE,5.8,-,N/A,,Clear,70,2013-02-25 14:53:00
5:53 AM,69.1,59.0,70,30.01,10.0,NE,5.8,-,N/A,,Clear,50,2013-02-25 15:53:00
6:53 AM,68.0,60.1,76,30.04,10.0,ENE,6.9,-,N/A,,Clear,60,2013-02-25 16:53:00
7:53 AM,72.0,57.9,61,30.04,10.0,South,3.5,-,N/A,,Clear,170,2013-02-25 17:53:00
8:53 AM,75.9,62.1,62,30.05,10.0,Calm,Calm,-,N/A,,Partly Cloudy,0,2013-02-25 18:53:00
9:53 AM,77.0,60.1,56,30.06,10.0,West,6.9,-,N/A,,Scattered Clouds,270,2013-02-25 19:53:00
10:53 AM,78.1,63.0,60,30.06,10.0,WSW,9.2,-,N/A,,Clear,240,2013-02-25 20:53:00
11:53 AM,80.1,64.0,58,30.04,10.0,South,12.7,-,N/A,,Clear,190,2013-02-25 21:53:00
12:53 PM,79.0,63.0,58,30.02,10.0,South,12.7,-,N/A,,Mostly Cloudy,190,2013-02-25 22:53:00
1:53 PM,80.1,63.0,56,30.01,10.0,South,11.5,-,N/A,,Scattered Clouds,180,2013-02-25 23:53:00
2:53 PM,81.0,64.0,56,29.99,10.0,South,13.8,-,N/A,,Scattered Clouds,180,2013-02-26 00:53:00
3:53 PM,78.1,64.0,62,30.00,10.0,South,11.5,-,0.00,,Overcast,170,2013-02-26 01:53:00
4:53 PM,79.0,64.0,60,30.00,10.0,SSE,15.0,-,N/A,,Mostly Cloudy,160,2013-02-26 02:53:00
5:53 PM,78.1,62.1,58,30.01,10.0,SE,11.5,-,N/A,,Overcast,140,2013-02-26 03:53:00
6:53 PM,77.0,62.1,60,30.03,10.0,ESE,9.2,-,N/A,,Mostly Cloudy,110,2013-02-26 04:53:00
7:53 PM,75.9,59.0,56,30.05,10.0,East,10.4,25.3,N/A,,Scattered Clouds,90,2013-02-26 05:53:00
8:45 PM,75.2,59.0,57,30.06,10.0,North,18.4,26.5,N/A,,Mostly Cloudy,360,2013-02-26 06:45:00
8:53 PM,75.0,59.0,57,30.06,10.0,North,15.0,-,N/A,,Partly Cloudy,360,2013-02-26 06:53:00
9:53 PM,73.9,59.0,59,30.09,10.0,NNE,6.9,-,N/A,,Clear,30,2013-02-26 07:53:00
10:53 PM,73.9,57.0,55,30.09,10.0,NNE,8.1,-,N/A,,Partly Cloudy,20,2013-02-26 08:53:00
11:53 PM,72.0,61.0,68,30.08,10.0,Calm,Calm,-,N/A,,Clear,0,2013-02-26 09:53:00